Location: Ford County Road and Bridge Department
(37.7686°N, 99.9762°W)
Time: 06:45:12
(UTC+00:00)

Ariane Rocket - Pass Details

Date: 18 January 2020
Orbit: 761 x 769 km, 98.7° (Epoch: 17 February)

Event Time Altitude Azimuth Distance (km) Brightness Sun altitude
Rises 02:26:01 0° 181° (S) 3,207 6.3 -31.1°
Enters shadow 02:28:11 - 186° (S) 2,365 5.6 -31.6°
Exits shadow 02:33:52 43° 283° (WNW) 1,058 4.0 -32.7°
Drops below altitude 10° 02:38:05 10° 334° (NNW) 2,306 5.7 -33.5°
Sets 02:40:30 0° 340° (NNW) 3,238 6.5 -34.0°
